TimeEST,TemperatureF,Dew PointF,Humidity,Sea Level PressureIn,VisibilityMPH,Wind Direction,Wind SpeedMPH,Gust SpeedMPH,PrecipitationIn,Events,Conditions,WindDirDegrees,DateUTC
12:53 AM,33.1,26.1,75,30.03,6.0,Calm,Calm,-,N/A,,Haze,0,2013-12-02 05:53:00
1:53 AM,32.0,27.0,82,30.02,6.0,NNW,3.5,-,N/A,,Haze,330,2013-12-02 06:53:00
2:53 AM,33.1,27.0,78,30.01,5.0,Calm,Calm,-,N/A,,Haze,0,2013-12-02 07:53:00
3:53 AM,33.1,27.0,78,30.00,5.0,North,3.5,-,N/A,,Haze,360,2013-12-02 08:53:00
4:53 AM,33.1,27.0,78,29.98,5.0,North,3.5,-,N/A,,Haze,360,2013-12-02 09:53:00
5:53 AM,30.9,26.1,82,29.98,5.0,NNW,3.5,-,N/A,,Haze,340,2013-12-02 10:53:00
6:53 AM,30.0,25.0,82,29.98,4.0,Calm,Calm,-,N/A,,Haze,0,2013-12-02 11:53:00
7:25 AM,28.0,26.1,92,29.97,2.5,North,4.6,-,N/A,,Mostly Cloudy,350,2013-12-02 12:25:00
7:53 AM,30.0,26.1,85,29.99,2.5,Calm,Calm,-,N/A,,Overcast,0,2013-12-02 12:53:00
8:50 AM,32.0,26.6,80,29.98,3.0,Calm,Calm,-,N/A,,Haze,0,2013-12-02 13:50:00
8:53 AM,32.0,27.0,82,30.00,3.0,Calm,Calm,-,N/A,,Haze,0,2013-12-02 13:53:00
9:53 AM,34.0,27.0,75,29.99,4.0,Calm,Calm,-,N/A,,Haze,0,2013-12-02 14:53:00
10:53 AM,36.0,28.0,73,29.98,4.0,Calm,Calm,-,N/A,,Haze,0,2013-12-02 15:53:00
11:53 AM,37.9,28.0,68,29.95,4.0,Calm,Calm,-,N/A,,Haze,0,2013-12-02 16:53:00
12:53 PM,39.0,28.0,65,29.93,5.0,Calm,Calm,-,N/A,,Haze,0,2013-12-02 17:53:00
1:53 PM,41.0,28.0,60,29.91,5.0,Calm,Calm,-,N/A,,Haze,0,2013-12-02 18:53:00
2:53 PM,41.0,28.0,60,29.90,6.0,Calm,Calm,-,N/A,,Haze,0,2013-12-02 19:53:00
3:53 PM,39.9,28.9,65,29.91,5.0,Calm,Calm,-,N/A,,Haze,0,2013-12-02 20:53:00
4:53 PM,37.9,30.0,73,29.93,6.0,Calm,Calm,-,N/A,,Haze,0,2013-12-02 21:53:00
5:53 PM,37.9,30.0,73,29.93,6.0,Calm,Calm,-,N/A,,Haze,0,2013-12-02 22:53:00
6:53 PM,35.1,28.9,78,29.92,5.0,Calm,Calm,-,N/A,,Haze,0,2013-12-02 23:53:00
7:53 PM,33.1,28.9,85,29.91,5.0,Calm,Calm,-,N/A,,Scattered Clouds,0,2013-12-03 00:53:00
8:53 PM,32.0,28.0,85,29.91,4.0,Calm,Calm,-,N/A,,Partly Cloudy,0,2013-12-03 01:53:00
9:53 PM,32.0,28.0,85,29.91,4.0,Calm,Calm,-,N/A,,Mostly Cloudy,0,2013-12-03 02:53:00
10:53 PM,30.0,28.0,92,29.91,4.0,Calm,Calm,-,N/A,,Mostly Cloudy,0,2013-12-03 03:53:00
11:53 PM,32.0,28.9,88,29.92,3.0,Calm,Calm,-,N/A,,Overcast,0,2013-12-03 04:53:00